Location: Jebel Oujjit
(32.4894°N, 5.4094°W)
Time: 19:46:05
(UTC+00:00)

Daily predictions for brighter satellites

Satellite Brightness Start Highest point End
(mag) Time Altitude Azimuth Time Altitude Azimuth Time Altitude Azimuth
Cosmos 2278 Rocket 3.5 19:39:12 10° SE 19:43:07 19° E 19:47:01 10° NE
SJ-11-01 4.3 19:39:36 10° SSE 19:44:19 83° ENE 19:49:02 10° N
Cosmos 1844 Rocket 3.2 19:39:45 10° SSW 19:45:22 67° WNW 19:51:01 10° NNE
STARLINK-1160 3.9 19:41:18 10° NW 19:45:25 65° SW 19:49:29 10° SSE
Cosmos 1666 2.9 19:42:26 10° N 19:46:12 54° E 19:49:56 10° SSE
YAOGAN 1 4.4 19:43:00 10° SSW 19:46:51 32° W 19:50:44 10° NW
Ariane Rocket 3.1 19:44:26 10° SSE 19:49:24 59° ENE 19:54:23 10° N
CZ-4 R/B 4.1 19:47:05 10° SSW 19:50:19 22° W 19:53:35 10° NW
STARLINK-1240 4.5 19:46:49 10° S 19:50:23 28° SE 19:53:56 10° ENE
STARLINK-1170 4.1 19:46:20 10° NW 19:50:23 57° SW 19:54:26 10° SSE
IRS-1A Rocket 4.5 19:45:54 10° SSE 19:51:39 61° ENE 19:57:18 10° N
CZ-2C R/B 3.2 19:49:30 10° SSE 19:54:48 83° ENE 20:00:26 10° N
STARLINK-1216 4.3 19:51:38 10° S 19:55:19 32° SE 19:59:00 10° ENE
STARLINK-1150 4.3 19:51:21 10° NW 19:55:22 50° SW 19:59:21 10° SSE
Okean 1-7 4.0 19:52:27 10° SSE 19:56:06 28° E 19:59:44 10° NNE
ASTEX 1 4.0 19:51:41 10° SE 19:56:08 37° E 20:00:39 10° NNE
Cosmos 2251 Rocket 3.5 19:52:12 10° NNW 19:57:26 79° ENE 20:02:39 10° SSE
SEDSat Delta rocket 4.1 19:51:05 10° W 19:57:52 82° S 20:04:35 10° E
Okean 1 4.0 19:56:02 10° SSE 19:59:44 36° E 20:03:27 10° NNE
STARLINK-1237 4.2 19:56:29 10° SSW 20:00:16 35° SE 20:04:03 10° ENE
BREEZE M DEB (TANK) 3.0 19:57:38 10° NW 20:00:39 34° NNE 20:02:37 11° ESE
MONITOR-E 4.3 19:59:05 10° SSE 20:01:28 37° ENE 20:03:52 10° N
Cosmos 1862 Rocket 4.2 19:57:39 10° SSW 20:02:01 60° W 20:06:23 10° N
EXPRESS MD2 3.9 20:00:42 10° SSE 20:02:17 16° ESE 20:04:16 10° E
Cosmos 1733 Rocket 3.1 19:59:47 10° N 20:04:08 81° W 20:08:27 10° S
STARLINK-1202 4.0 20:01:22 10° SSW 20:05:14 40° SE 20:09:07 10° ENE
FREGAT/IRIS 2.2 20:03:30 10° SSE 20:06:09 77° ENE 20:08:48 10° N
Cosmos 2056 Rocket 3.7 20:02:49 10° S 20:07:42 47° ESE 20:12:35 10° NNE
Cosmos 389 Rocket 2.3 20:06:48 10° S 20:10:11 68° E 20:13:39 10° NNE
NOSS 2-3 (E) 3.9 20:07:13 10° SW 20:11:20 69° WNW 20:15:51 10° NNE
MOS 1 Rocket 3.0 20:07:02 10° NNE 20:11:23 73° E 20:15:38 10° S
STARLINK-1166 4.5 20:08:41 10° NNW 20:12:35 39° NE 20:15:48 14° ESE
STARLINK-1157 3.0 20:11:04 10° NW 20:14:22 76° NE 20:16:46 17° SE
DMSP B5D2-2 4.1 20:09:10 10° NNE 20:14:26 66° ESE 20:19:38 10° S
STARLINK-1246 3.7 20:11:09 10° SSW 20:15:09 51° SE 20:19:10 10° NE
Meteor 1-18 Rocket 4.3 20:10:47 10° S 20:16:10 54° E 20:21:37 10° NNE
STARLINK-1165 4.3 20:13:37 10° NNW 20:17:35 43° NE 20:20:35 16° ESE
Cosmos 1607 4.0 20:11:56 10° NNW 20:18:23 90° SSW 20:24:32 11° SSE
STARLINK-1087 3.8 20:18:07 10° N 20:19:30 17° NE 20:20:03 15° ENE
STARLINK-1224 3.6 20:16:03 10° SSW 20:20:06 58° SE 20:24:10 10° NE
SL-08 RB Rocket 3.7 20:16:35 10° SSE 20:21:12 86° ENE 20:25:48 10° N
STARLINK-1169 4.1 20:18:32 10° NNW 20:22:33 48° NE 20:25:21 18° ESE
Cosmos 1536 3.9 20:18:46 10° NNW 20:22:40 46° W 20:26:33 10° SSW
CZ-2C R/B 3.6 20:18:39 10° NNE 20:23:09 83° ESE 20:27:42 10° S
STARLINK-1225 3.5 20:20:58 10° SSW 20:25:04 66° SE 20:29:10 10° NE
Meteor 2-4 Rocket 4.4 20:23:26 14° SSE 20:27:25 32° E 20:32:06 10° NNE
SJ-6B 2.8 20:23:41 10° S 20:27:26 74° W 20:31:09 10° NNW
STARLINK-1178 4.0 20:23:29 10° NW 20:27:33 54° NE 20:30:09 20° ESE
COSMOS 2406 4.4 20:25:07 10° N 20:29:58 27° ENE 20:33:09 17° ESE
STARLINK-1230 3.5 20:25:55 10° SW 20:30:02 75° SE 20:34:09 10° NE
ATLAS 3B CENTAUR R/B 4.1 20:16:15 10° SW 20:31:58 44° SSE 20:38:13 16° ESE
STARLINK-1120 3.8 20:28:27 10° NW 20:32:32 60° NE 20:34:56 23° ESE
Hubble Space Telescope 1.2 20:29:13 10° WSW 20:33:11 45° S 20:35:17 24° SE
Resurs 01 Rocket 2.3 20:32:02 21° SE 20:34:29 37° ENE 20:38:34 10° N
Cosmos 2034 Rocket 3.9 20:28:25 10° N 20:34:37 85° E 20:40:45 10° S
STARLINK-1243 3.5 20:30:52 10° SW 20:35:00 84° SE 20:39:09 10° NE
Cosmos 1703 Rocket 3.7 20:32:05 10° S 20:36:23 75° W 20:40:43 10° N
Cosmos 1782 Rocket 4.1 20:32:49 10° N 20:37:05 42° E 20:39:21 24° SE
STARLINK-1131 3.7 20:33:23 10° NW 20:37:30 68° NE 20:39:42 26° ESE
Cosmos 1452 Rocket 4.3 20:35:44 19° SE 20:38:27 30° E 20:43:01 10° NE
STARLINK-1236 3.6 20:35:51 10° SW 20:39:59 87° NW 20:44:08 10° NE
Cosmos 1420 Rocket 4.1 20:37:04 10° S 20:42:05 50° ESE 20:47:06 10° NNE
MetOp-A 4.1 20:37:31 13° SSE 20:42:20 89° WSW 20:47:44 10° NNW
STARLINK-1190 3.6 20:38:20 10° NW 20:42:29 76° NE 20:44:29 29° SE
ERBS 3.9 20:41:05 10° WSW 20:44:09 36° NW 20:47:14 10° NNE
Cosmos 407 Rocket 3.7 20:39:07 10° N 20:44:23 58° ENE 20:47:25 25° SE
GPS 2-04 Rocket1 2.3 20:41:20 10° WSW 20:44:51 79° SSE 20:47:11 21° ENE
STARLINK-1129 3.5 20:43:20 10° NW 20:47:29 85° NE 20:49:17 33° SE
Orbus 7S 4.1 20:44:40 10° SW 20:47:34 37° SSE 20:49:53 24° ESE
USA 186 4.2 20:48:25 10° WSW 20:49:23 12° W 20:50:23 10° WNW
STARLINK-1269 3.9 20:45:48 10° SW 20:49:55 69° NW 20:54:02 10° NE
Cosmos 1743 2.9 20:47:08 10° NNW 20:50:54 67° W 20:53:24 20° S
STARLINK-1134 3.5 20:48:18 10° NW 20:52:27 85° SW 20:54:04 36° SE
Cosmos 44 Rocket 3.9 20:48:48 10° NW 20:53:35 53° WSW 20:56:51 20° S
Okean 2 Rocket 4.3 20:50:46 10° NNE 20:54:23 24° ENE 20:54:50 24° E
STARLINK-1200 4.1 20:50:50 10° SW 20:54:54 61° NW 20:59:01 10° NE
Iridium 51 4.2 20:52:43 23° S 20:55:14 79° E 20:59:05 10° N
Cosmos 1908 Rocket 4.2 20:51:12 10° NNW 20:55:34 56° W 20:59:13 14° S
Delta 198 4.4 20:53:13 10° WSW 20:56:53 27° S 20:57:06 26° S
STARLINK-1135 3.6 20:53:17 10° NW 20:57:25 76° SW 20:58:51 39° SSE
STARLINK-1192 4.3 20:55:51 10° WSW 20:59:54 55° NW 21:03:59 10° NE
Cosmos 2082 Rocket 3.9 20:56:19 10° NNE 21:00:09 18° ENE 21:01:58 16° E
CZ-2C R/B 3.8 20:56:40 10° N 21:02:00 46° WNW 21:07:19 10° SW
STARLINK-1141 3.7 20:58:17 10° NW 21:02:23 67° SW 21:03:38 42° SSE
Cosmos 1833 Rocket 3.7 20:57:36 10° N 21:02:32 31° ENE 21:04:19 26° E
SPOT 3 Rocket 3.9 20:59:41 17° S 21:03:35 61° WSW 21:08:41 10° NNW
Cosmos 724 4.3 20:58:20 10° NNW 21:04:15 69° ENE 21:06:59 33° SE
Cosmos 614 Rocket 4.2 21:00:46 10° NNW 21:05:48 65° WSW 21:08:43 25° S
STARLINK-1140 3.9 21:03:17 10° NW 21:07:22 59° SW 21:08:26 43° S
Resurs 1-3 4.2 21:06:07 21° S 21:08:49 52° W 21:13:06 10° NNW
Cosmos 1190 Rocket 3.9 21:04:10 10° NNW 21:09:25 83° ENE 21:11:33 37° SSE
Terra 4.0 21:09:16 12° ENE 21:09:30 12° ENE 21:11:05 10° NE
Cosmos 1140 Rocket 3.4 21:04:39 10° NNW 21:09:52 74° ENE 21:11:49 39° SSE
SPOT 1/Viking Rocket 4.5 21:09:30 29° E 21:10:34 31° ENE 21:15:04 10° N
Okean 3 3.3 21:09:19 36° S 21:11:00 82° E 21:15:19 10° N
STARLINK-1156 4.0 21:08:17 10° NW 21:12:18 52° SW 21:13:12 43° S
Cosmos 1634 Rocket 3.9 21:07:29 10° N 21:13:50 76° E 21:16:58 32° SSE
CREW DRAGON DEMO-1 DEB 3.1 21:11:55 10° NW 21:14:41 66° NNW 21:14:41 66° NNW
VEP-3 3.9 21:10:29 10° SW 21:14:48 22° S 21:14:48 22° S
Meteor 2-9 Rocket 4.0 21:11:08 10° N 21:16:30 85° W 21:18:53 34° S
Aureole 1 Rocket 3.6 21:12:21 10° NNW 21:17:08 87° WSW 21:19:43 35° SSE
STARLINK-1148 4.2 21:13:17 10° NW 21:17:15 46° SW 21:17:58 41° SSW
Cosmos 1461 4.1 21:19:52 27° ENE 21:19:52 27° ENE 21:22:07 10° NE
Meteor 1-4 Rocket 4.2 21:16:55 14° SW 21:19:27 31° WNW 21:22:34 10° NNW
Cosmos 371 Rocket 3.1 21:16:56 29° S 21:19:27 83° ESE 21:24:20 10° NNE
ERS-1 Rocket 4.1 21:20:07 27° E 21:20:35 27° ENE 21:24:47 10° NNE
STARLINK-1158 4.3 21:18:20 10° WNW 21:22:13 41° SW 21:22:46 39° SSW
ASTRO E2 4.3 21:22:36 10° SW 21:24:17 22° SW 21:24:17 22° SW
Cosmos 2278 Rocket 3.3 21:21:21 10° SW 21:26:45 45° WNW 21:32:11 10° N
Lacrosse 5 3.7 21:23:29 10° N 21:27:10 20° NE 21:28:51 17° ENE
STARLINK-1115 4.5 21:25:41 10° NNW 21:29:33 37° NE 21:29:51 37° NE
Spot 2 Rocket 3.3 21:33:22 59° SSE 21:34:19 81° ENE 21:39:22 10° N
STARLINK-1076 4.4 21:30:37 10° NNW 21:34:33 41° NE 21:34:38 41° NE
Cosmos 1954 Rocket 3.9 21:29:47 10° NNW 21:35:05 81° ENE 21:36:02 60° SSE
Cosmos 1975 4.2 21:33:19 10° NNW 21:37:00 35° W 21:38:10 28° SW
STARLINK-1092 4.3 21:35:31 10° NNW 21:39:23 46° NE 21:39:23 46° NE
Cosmos 1437 Rocket 3.4 21:43:31 47° NNE 21:43:31 47° NNE 21:46:18 10° N
Cosmos 1300 Rocket 3.5 21:38:04 10° N 21:42:23 80° NE 21:42:23 80° NE
SEDSat Delta rocket 4.1 21:37:53 10° W 21:44:28 54° SSW 21:45:18 51° S
STARLINK-1080 4.2 21:40:31 10° NW 21:44:13 50° NNE 21:44:13 50° NNE
STARLINK-1090 4.2 21:45:26 10° NW 21:48:59 52° N 21:48:59 52° N
Cosmos 676 Rocket 4.1 21:44:48 10° NNW 21:50:02 69° WSW 21:50:47 60° SSW
Cosmos 1674 Rocket 3.7 21:52:50 68° N 21:52:50 68° N 21:56:40 10° N
Cosmos 972 Rocket 4.3 21:51:34 63° SE 21:52:19 70° E 21:58:46 10° NNE
STARLINK-1089 4.3 21:50:23 10° NW 21:53:45 53° N 21:53:45 53° N
Cosmos 1378 Rocket 4.1 21:58:47 52° NNE 21:58:47 52° NNE 22:02:10 10° N
SPOT 5 3.2 21:58:24 57° ENE 21:58:24 57° ENE 22:03:19 10° N
STARLINK-1107 4.4 21:55:19 10° NW 21:58:31 51° NNW 21:58:31 51° NNW
Cosmos 304 Rocket 3.8 22:01:09 74° NNW 22:01:09 74° NNW 22:05:34 10° NNE
Landsat 7 4.1 22:01:48 59° WSW 22:01:53 59° W 22:06:36 10° NNW
Resurs 01 Rocket 4.0 22:09:35 13° WSW 22:11:02 15° W 22:13:36 10° WNW
COSMOS 2406 4.3 22:09:05 10° NW 22:14:14 34° WSW 22:15:13 32° SW
H-2A R/B 4.2 22:11:21 10° WSW 22:12:33 17° SW 22:12:33 17° SW
H-2A ROCKET BODY 4.0 22:10:42 10° SW 22:17:08 55° SSE 22:52:29 10° E
Meteor 1-23 Rocket 4.4 22:16:55 63° WSW 22:17:31 68° W 22:23:11 10° N
Nadezhda 4 Rocket 4.0 22:24:04 63° SW 22:24:48 69° W 22:30:56 10° N
Cosmos 2297 4.3 22:25:03 43° WSW 22:26:22 52° WNW 22:31:56 10° N
Milstar 3 Cent rocket 4.5 22:31:23 10° SW 22:41:53 58° SSE 23:04:50 10° E
Cosmos 2082 Rocket 2.8 22:39:00 10° NNW 22:43:50 50° W 22:43:50 50° W
Cosmos 1833 Rocket 4.1 22:41:33 10° NW 22:46:01 28° W 22:46:01 28° W
Terra 3.0 22:48:09 40° NW 22:48:09 40° NW 22:51:22 10° NNW
BREEZE-M DEB (TANK) 4.5 22:47:33 39° NNW 22:47:43 40° NNW 22:55:33 10° NE
Cosmos 1943 Rocket 2.8 22:50:55 51° N 22:50:55 51° N 22:55:04 10° NNE
Cosmos 2369 Rocket 3.2 22:52:25 39° NE 22:52:25 39° NE 22:55:57 10° NNE
ISS -0.3 22:48:16 10° NNW 22:48:30 11° NNW 22:48:30 11° NNW
ATLAS 3B CENTAUR R/B 3.8 22:46:08 10° WSW 22:52:30 34° WSW 22:52:30 34° WSW
SeaSat 1 3.6 22:54:36 10° NNE 22:57:56 41° N 22:57:56 41° N
ATLAS 2AS CENTAUR R/B 3.2 23:11:15 58° ENE 23:11:15 58° ENE 23:17:54 10° NE
Lacrosse 5 3.5 23:05:29 10° NW 23:08:03 29° NW 23:08:03 29° NW
NOSS 3-2 (A) 4.4 23:16:01 10° NNW 23:23:41 54° ENE 23:24:27 53° ENE
USA 238 DEB 4.2 23:25:36 10° NNW 23:32:36 58° NE 23:32:36 58° NE
USA 238 4.2 23:25:43 10° NNW 23:32:44 58° NE 23:32:44 58° NE
